• In United Kingdom
  • List of Countries
  • For 7 days
  • Water Temperature
  • Satellite Maps
  • Weather Map
  • Weather Widgets
  • user-avatar
    Login

    Hourly Weather Hobart

    Today, 14 December, Thursday

    Time Temperature Precipitation Wind Pressure Humidity
    00:00 +20°C° 0 mm 3 mps 737 mmHg 54%
    01:00 +20°C° 0 mm 3 mps 737 mmHg 58%
    02:00 +19°C° 0 mm 3 mps 736 mmHg 62%
    03:00 +18°C° 0 mm 2 mps 736 mmHg 66%
    04:00 +18°C° 0 mm 1 mps 735 mmHg 64%
    05:00 +18°C° 0.1 mm 2 mps 735 mmHg 66%
    06:00 +19°C° 0.1 mm 2 mps 735 mmHg 67%
    07:00 +20°C° 0.1 mm 2 mps 735 mmHg 69%
    08:00 +19°C° 0 mm 3 mps 736 mmHg 71%
    09:00 +19°C° 0 mm 4 mps 736 mmHg 72%
    10:00 +22°C° 0 mm 3 mps 736 mmHg 61%
    11:00 +22°C° 0 mm 4 mps 736 mmHg 56%
    12:00 +22°C° 0 mm 5 mps 736 mmHg 51%
    13:00 +22°C° 0 mm 6 mps 737 mmHg 46%
    14:00 +21°C° 0 mm 6 mps 737 mmHg 45%
    15:00 +21°C° 0 mm 6 mps 737 mmHg 44%
    16:00 +20°C° 0 mm 6 mps 737 mmHg 43%
    17:00 +17°C° 0 mm 6 mps 738 mmHg 51%
    18:00 +16°C° 0 mm 6 mps 739 mmHg 59%
    19:00 +14°C° 0 mm 6 mps 740 mmHg 68%
    20:00 +13°C° 0.1 mm 5 mps 741 mmHg 74%
    21:00 +12°C° 0.1 mm 4 mps 742 mmHg 80%
    22:00 +12°C° 0.1 mm 4 mps 742 mmHg 86%
    23:00 +11°C° 0.1 mm 3 mps 743 mmHg 87%

    Tomorrow, 15 December, Friday

    Time Temperature Precipitation Wind Pressure Humidity
    00:00 +10°C° 0.1 mm 3 mps 743 mmHg 89%
    01:00 +9°C° 0.1 mm 3 mps 744 mmHg 91%
    02:00 +9°C° 0 mm 3 mps 744 mmHg 92%
    03:00 +8°C° 0 mm 2 mps 744 mmHg 94%
    04:00 +7°C° 0 mm 2 mps 744 mmHg 96%
    05:00 +9°C° 0 mm 2 mps 744 mmHg 88%
    06:00 +10°C° 0 mm 2 mps 744 mmHg 80%
    07:00 +13°C° 0 mm 2 mps 744 mmHg 73%
    08:00 +15°C° 0 mm 2 mps 744 mmHg 62%
    09:00 +18°C° 0 mm 2 mps 744 mmHg 51%
    10:00 +20°C° 0 mm 2 mps 744 mmHg 40%
    11:00 +22°C° 0 mm 3 mps 743 mmHg 36%
    12:00 +25°C° 0 mm 3 mps 743 mmHg 31%
    13:00 +26°C° 0 mm 4 mps 743 mmHg 26%
    14:00 +26°C° 0 mm 4 mps 742 mmHg 27%
    15:00 +26°C° 0 mm 4 mps 742 mmHg 28%
    16:00 +26°C° 0 mm 4 mps 741 mmHg 29%
    17:00 +23°C° 0 mm 4 mps 741 mmHg 37%
    18:00 +21°C° 0 mm 3 mps 741 mmHg 45%
    19:00 +19°C° 0 mm 2 mps 742 mmHg 54%
    20:00 +17°C° 0 mm 2 mps 742 mmHg 63%
    21:00 +14°C° 0 mm 2 mps 742 mmHg 73%
    22:00 +12°C° 0 mm 2 mps 742 mmHg 83%
    23:00 +12°C° 0 mm 2 mps 742 mmHg 86%

    Day after tomorrow, 16 December, Saturday

    Time Temperature Precipitation Wind Pressure Humidity
    00:00 +10°C° 0 mm 2 mps 742 mmHg 89%
    01:00 +10°C° 0 mm 2 mps 742 mmHg 92%
    02:00 +10°C° 0 mm 3 mps 742 mmHg 89%
    03:00 +11°C° 0 mm 3 mps 742 mmHg 85%
    04:00 +11°C° 0 mm 3 mps 742 mmHg 82%
    05:00 +13°C° 0 mm 4 mps 742 mmHg 77%
    06:00 +14°C° 0 mm 4 mps 743 mmHg 72%
    07:00 +16°C° 0 mm 5 mps 743 mmHg 67%
    08:00 +17°C° 0 mm 5 mps 743 mmHg 65%
    09:00 +17°C° 0 mm 5 mps 743 mmHg 64%
    10:00 +19°C° 0 mm 5 mps 744 mmHg 62%
    11:00 +19°C° 0.1 mm 4 mps 744 mmHg 64%
    12:00 +19°C° 0.1 mm 4 mps 744 mmHg 66%
    13:00 +19°C° 0.1 mm 3 mps 745 mmHg 68%
    14:00 +19°C° 0.1 mm 4 mps 745 mmHg 64%
    15:00 +19°C° 0.1 mm 4 mps 745 mmHg 61%
    16:00 +20°C° 0.1 mm 4 mps 745 mmHg 58%
    17:00 +19°C° 0 mm 3 mps 746 mmHg 62%
    18:00 +18°C° 0 mm 3 mps 746 mmHg 66%
    19:00 +16°C° 0 mm 3 mps 747 mmHg 69%
    20:00 +14°C° 0 mm 3 mps 747 mmHg 77%
    21:00 +13°C° 0 mm 2 mps 748 mmHg 85%
    22:00 +10°C° 0 mm 2 mps 749 mmHg 93%
    23:00 +9°C° 0 mm 2 mps 749 mmHg 94%

    17 December, Sunday

    Time Temperature Precipitation Wind Pressure Humidity
    00:00 +8°C° 0 mm 2 mps 749 mmHg 95%
    01:00 +8°C° 0 mm 2 mps 749 mmHg 96%
    02:00 +7°C° 0 mm 2 mps 749 mmHg 96%
    03:00 +7°C° 0 mm 2 mps 749 mmHg 96%
    04:00 +7°C° 0 mm 2 mps 750 mmHg 96%
    05:00 +10°C° 0 mm 1 mps 750 mmHg 86%
    06:00 +12°C° 0 mm 1 mps 750 mmHg 76%
    07:00 +14°C° 0 mm 1 mps 751 mmHg 66%
    08:00 +18°C° 0 mm 1 mps 751 mmHg 56%
    09:00 +20°C° 0 mm 1 mps 751 mmHg 46%
    10:00 +23°C° 0 mm 2 mps 752 mmHg 36%
    11:00 +24°C° 0 mm 2 mps 751 mmHg 34%
    12:00 +24°C° 0 mm 3 mps 751 mmHg 33%
    13:00 +25°C° 0 mm 3 mps 751 mmHg 31%
    14:00 +23°C° 0 mm 4 mps 751 mmHg 36%
    15:00 +22°C° 0 mm 4 mps 751 mmHg 41%
    16:00 +21°C° 0 mm 4 mps 750 mmHg 46%
    17:00 +19°C° 0 mm 4 mps 751 mmHg 54%
    18:00 +17°C° 0 mm 4 mps 751 mmHg 62%
    19:00 +15°C° 0 mm 4 mps 751 mmHg 69%
    20:00 +14°C° 0 mm 3 mps 751 mmHg 75%
    21:00 +13°C° 0 mm 3 mps 751 mmHg 80%
    22:00 +12°C° 0 mm 3 mps 751 mmHg 85%
    23:00 +12°C° 0 mm 3 mps 750 mmHg 87%

    18 December, Monday

    Time Temperature Precipitation Wind Pressure Humidity
    00:00 +12°C° 0 mm 4 mps 750 mmHg 89%
    01:00 +12°C° 0 mm 4 mps 749 mmHg 91%
    02:00 +11°C° 0 mm 3 mps 748 mmHg 93%
    03:00 +11°C° 0 mm 3 mps 748 mmHg 95%
    04:00 +10°C° 0 mm 3 mps 747 mmHg 97%
    05:00 +12°C° 0 mm 3 mps 747 mmHg 87%
    06:00 +16°C° 0 mm 3 mps 747 mmHg 77%
    07:00 +18°C° 0 mm 2 mps 747 mmHg 67%
    08:00 +21°C° 0 mm 2 mps 747 mmHg 56%
    09:00 +25°C° 0 mm 2 mps 746 mmHg 45%
    10:00 +28°C° 0 mm 2 mps 746 mmHg 34%
    11:00 +29°C° 0 mm 2 mps 745 mmHg 32%
    12:00 +30°C° 0 mm 3 mps 745 mmHg 30%
    13:00 +33°C° 0 mm 4 mps 744 mmHg 28%
    14:00 +31°C° 0 mm 3 mps 744 mmHg 30%
    15:00 +31°C° 0 mm 3 mps 743 mmHg 33%
    16:00 +30°C° 0 mm 3 mps 743 mmHg 35%
    17:00 +28°C° 0 mm 3 mps 743 mmHg 45%
    18:00 +26°C° 0 mm 2 mps 743 mmHg 54%
    19:00 +24°C° 0 mm 2 mps 743 mmHg 63%
    20:00 +21°C° 0 mm 2 mps 743 mmHg 71%
    21:00 +20°C° 0 mm 1 mps 743 mmHg 80%
    22:00 +18°C° 0 mm 1 mps 743 mmHg 89%
    23:00 +18°C° 0 mm 1 mps 742 mmHg 88%

    19 December, Tuesday

    Time Temperature Precipitation Wind Pressure Humidity
    00:00 +17°C° 0 mm 2 mps 741 mmHg 86%
    01:00 +17°C° 0 mm 2 mps 741 mmHg 84%
    02:00 +18°C° 0 mm 2 mps 740 mmHg 78%
    03:00 +19°C° 0 mm 2 mps 740 mmHg 71%
    04:00 +19°C° 0 mm 3 mps 739 mmHg 65%
    05:00 +21°C° 0 mm 3 mps 739 mmHg 60%
    06:00 +24°C° 0 mm 3 mps 738 mmHg 55%
    07:00 +25°C° 0 mm 4 mps 738 mmHg 50%
    08:00 +27°C° 0 mm 4 mps 737 mmHg 46%
    09:00 +29°C° 0 mm 5 mps 737 mmHg 41%
    10:00 +30°C° 0 mm 5 mps 736 mmHg 37%
    11:00 +32°C° 0.1 mm 6 mps 735 mmHg 35%
    12:00 +33°C° 0.1 mm 6 mps 733 mmHg 33%
    13:00 +35°C° 0.1 mm 6 mps 732 mmHg 31%
    14:00 +35°C° 0 mm 7 mps 731 mmHg 29%
    15:00 +37°C° 0 mm 8 mps 730 mmHg 28%
    16:00 +38°C° 0 mm 8 mps 729 mmHg 27%
    17:00 +34°C° 0 mm 7 mps 729 mmHg 35%
    18:00 +30°C° 0 mm 6 mps 729 mmHg 43%
    19:00 +27°C° 0 mm 5 mps 729 mmHg 51%
    20:00 +24°C° 0.3 mm 6 mps 730 mmHg 59%
    21:00 +22°C° 0.3 mm 6 mps 730 mmHg 66%
    22:00 +20°C° 0.3 mm 6 mps 730 mmHg 74%
    23:00 +19°C° 0 mm 6 mps 730 mmHg 71%
    Show more